Regional Weather Roundup
Issued by NWS

Home | Current Version | Previous Version | Graphics & Text | Print | Product List | Glossary On
Versions: 1 2 3 4 5 6 7 8 9 10 11 12 13 14 15 16 17 18 19 20 21 22 23 24 25 26 27 28 29 30 31 32 33 34 35 36 37 38 39 40 41 42 43 44 45 46 47 48 49 50
000
ASUS43 KDMX 261408
RWRIA

WEATHER ROUNDUP FOR IOWA
NATIONAL WEATHER SERVICE DES MOINES IA
900 AM CDT MON SEP 26 2016

NOTE: "FAIR" INDICATES FEW OR NO CLOUDS BELOW 12,000 FEET WITH NO
SIGNIFICANT WEATHER AND/OR OBSTRUCTIONS TO VISIBILITY.

* - THESE STATIONS ARE NOT NWS STATIONS...THUS NOT UNDER NWS
QUALITY CONTROL.  THEY ALSO DO NOT REPORT WEATHER SUCH
AS PRECIPITATION OR FOG.

IAZ001>003-012>014-020>022-031>034-043>046-261500-
   NORTHWEST IOWA

CITY           SKY/WX    TMP DP  RH WIND       PRES   REMARKS
CARROLL *      SUNNY     54  41  62 W10       30.17F
CHEROKEE *     SUNNY     50  41  71 W9        30.18R
DENISON *      SUNNY     50  41  71 SW5       30.19S
LE MARS *      SUNNY     52  41  66 W6G12     30.20S
ORANGE CITY *  SUNNY     48  41  76 W12       30.18S
SHELDON *      SUNNY     50  37  62 W12G18    30.14F
SIOUX CITY     SUNNY     52  40  63 NW8       30.21S
SPENCER        SUNNY     50  39  66 W14       30.14S
STORM LAKE *   SUNNY     48  41  76 W12       30.17S
$$

IAZ055>058-069>071-079>083-090>094-261500-
   SOUTHWEST IOWA

CITY           SKY/WX    TMP DP  RH WIND       PRES   REMARKS
ATLANTIC *     SUNNY     50  43  76 S5        30.21F
AUDUBON *      SUNNY     54  41  62 NW7       30.20S
CLARINDA *       N/A     54  43  66 MISG      30.25R
COUNCIL BLFS * SUNNY     54  43  66 W8        30.24R
CRESTON *      SUNNY     52  43  71 NW10      30.21F
HARLAN  *      SUNNY     52  41  66 W10       30.24F
LAMONI         SUNNY     54  44  69 W8        30.21R
RED OAK *      SUNNY     54  43  66 W9        30.23S
SHENANDOAH *   SUNNY     52  46  82 SW6       30.25R
$$

IAZ047>049-059>061-072>074-084-261500-
   CENTRAL IOWA

CITY           SKY/WX    TMP DP  RH WIND       PRES   REMARKS
AMES           SUNNY     54  43  66 W14       30.15R
ANKENY *         N/A    N/A N/A N/A MISG        N/A
BOONE *        SUNNY     52  41  66 W13       30.15S
CHARITON *       N/A     55  43  62 W10       30.17F
DES MOINES     SUNNY     57  41  55 W10       30.16S
GRINNELL*      MOSUNNY   54  42  64 W12G17    30.14S
KNOXVILLE *    SUNNY     54  43  66 W12       30.16R
MARSHALLTOWN   SUNNY     54  41  61 W13       30.11S
NEWTON *       SUNNY     55  41  58 W12G18    30.14S
PELLA *        SUNNY     56  42  57 W12G18    30.16S
PERRY *          N/A     56  40  56 W15       30.18S
$$

IAZ004>006-015-016-023>025-035-036-261500-
   NORTH CENTRAL IOWA

CITY           SKY/WX    TMP DP  RH WIND       PRES   REMARKS
ALGONA *       SUNNY     52  39  62 W12G20    30.11S
CLARION *      SUNNY     54  39  58 W16       30.11S
ESTHERVILLE    SUNNY     51  38  60 W15       30.10S
FORT DODGE *   SUNNY     52  43  71 W9        30.13S
MASON CITY     SUNNY     52  40  63 W16       30.08S
FOREST CITY *    N/A     52  39  62 W12G18    30.08S
WEBSTER CITY * SUNNY     52  41  66 W13       30.11S
IOWA FALLS *     N/A     53  41  64 W12G18    30.12S
$$

IAZ007>011-017>019-026>030-037>042-050>054-066-261500-
   NORTHEAST IOWA

CITY           SKY/WX    TMP DP  RH WIND       PRES   REMARKS
CEDAR RAPIDS   SUNNY     56  44  64 W15G22    30.09S
CHARLES CITY * SUNNY     54  41  62 W10G18    30.06S
CLINTON *      SUNNY     58  44  60 W14G23    30.07S
DECORAH *      SUNNY     54  41  62 VRB5G15   30.01R
DUBUQUE        SUNNY     54  43  66 W15       30.04S
MONTICELLO *   SUNNY     57  43  58 W14       30.06S
OELWEIN *      SUNNY     55  41  58 W16       30.06F
WATERLOO       SUNNY     54  41  61 W13       30.07S
$$

IAZ064-065-067-068-078-261500-
   EAST CENTRAL IOWA

CITY           SKY/WX    TMP DP  RH WIND       PRES   REMARKS
DAVENPORT      SUNNY     57  43  59 W13G21    30.08S
IOWA CITY      SUNNY     57  43  59 W13       30.12S
MT. PLEASANT * MOSUNNY   59  45  61 W12       30.15S
MUSCATINE *    SUNNY     57  43  58 W16       30.11S
QUAD CITIES    SUNNY     59  43  55 W13       30.08S
$$

IAZ062-063-075>077-085>089-095>099-261500-
   SOUTHEAST IOWA

CITY           SKY/WX    TMP DP  RH WIND       PRES   REMARKS
BURLINGTON     SUNNY     58  45  62 W7        30.13S
FAIRFIELD *    SUNNY     55  43  62 W10G18    30.14S
FORT MADISON * SUNNY     59  45  58 W9        30.15S
KEOKUK *       SUNNY     59  45  58 W8        30.15S
OSKALOOSA *      N/A     55  44  67 W13       30.15S
OTTUMWA        SUNNY     55  42  61 W9        30.16R
WASHINGTON *     N/A    N/A N/A N/A MISG        N/A
$$

ABBREVIATIONS USED IN REMARKS
   TC - TEMPERATURES IN CELSIUS
  WCI - WIND CHILL INDEX
   HX - HEAT INDEX
  VSB - VISIBILITY
$$





USA.gov is the U.S. government's official web portal to all federal, state and local government web resources and services.